[Date Prev][Date Next][Thread Prev][Thread Next] - [Date Index][Thread Index][Author Index]
2 Line ISS Keps 6-28
- Subject: [sarex] 2 Line ISS Keps 6-28
- From: "Dave Larsen PhD" <doc@xxxxxxxxxxx>
- Date: Sat, 28 Jun 2003 03:01:15 -0700
ISS
1 25544U 98067A 03179.17293981 .00014957 00000-0 18763-3 0 1648
2 25544 51.6331 324.9917 0007423 308.0904 42.7970 15.59942188262715
----
Via the sarex mailing list at AMSAT.ORG courtesy of AMSAT-NA.
To unsubscribe, send "unsubscribe sarex" to Majordomo@amsat.org
AMSAT Home